Location: Brno
(49.2000°N, 16.6330°E)
Time: 15:19:15
(UTC+02:00)

Altair - All Passes

Search period start: 02 August 2021 00:00
Search period end: 12 August 2021 00:00
Orbit: 1502 x 1682 km, 47.2° (Epoch: 02 August)

Date Brightness Start Highest point End Pass type
(mag) Time Alt. Az. Time Alt. Az. Time Alt. Az.
02 Aug - 01:32:19 10° SSW 01:40:36 35° SE 01:48:41 10° E visible
02 Aug - 03:35:01 10° WSW 03:44:19 70° SSE 03:53:25 10° E visible
02 Aug - 05:39:30 10° W 05:48:47 79° S 05:57:57 10° ESE daylight
02 Aug - 07:44:09 10° WNW 07:52:56 52° SSW 08:01:43 10° SE daylight
02 Aug - 09:49:56 10° W 09:55:56 20° SW 10:02:00 10° S daylight
03 Aug - 01:07:25 10° SSW 01:15:32 33° SE 01:23:28 10° E visible
03 Aug - 03:09:53 10° WSW 03:19:11 67° SSE 03:28:16 10° E visible
03 Aug - 05:14:19 10° W 05:23:38 80° S 05:32:48 10° E daylight
03 Aug - 07:18:58 10° WNW 07:27:50 54° SSW 07:36:40 10° SE daylight
03 Aug - 09:24:32 10° W 09:30:56 22° SW 09:37:22 10° S daylight
04 Aug - 00:42:31 10° SSW 00:50:29 31° SE 00:58:14 10° E visible
04 Aug - 02:44:45 10° WSW 02:54:03 65° SSE 03:03:07 10° E visible
04 Aug - 04:49:08 10° W 04:58:28 80° S 05:07:39 10° E visible
04 Aug - 06:53:47 10° WNW 07:02:44 57° SSW 07:11:37 10° SE daylight
04 Aug - 08:59:11 10° W 09:05:55 23° SW 09:12:41 10° S daylight
05 Aug - 00:17:41 10° S 00:25:26 29° SE 00:32:59 10° E visible
05 Aug - 02:19:37 10° SW 02:28:55 63° SSE 02:37:58 10° E visible
05 Aug - 04:23:56 10° W 04:33:19 81° S 04:42:30 10° E visible
05 Aug - 06:28:38 10° W 06:37:38 60° SSW 06:46:33 10° SE daylight
05 Aug - 08:33:52 10° W 08:40:54 26° SW 08:47:58 10° S daylight
05 Aug - 23:52:51 10° S 00:00:23 27° SE 00:07:43 10° E visible
06 Aug - 01:54:30 10° SW 02:03:47 61° SSE 02:12:49 10° E visible
06 Aug - 03:58:46 10° W 04:08:09 81° S 04:17:20 10° E visible
06 Aug - 06:03:27 10° W 06:12:30 62° SSW 06:21:29 10° SE daylight
06 Aug - 08:08:34 10° W 08:15:53 28° SW 08:23:12 10° S daylight
06 Aug - 23:28:05 10° S 23:35:20 25° SE 23:42:26 10° E visible
07 Aug - 01:29:24 10° SW 01:38:40 58° SSE 01:47:40 10° ENE visible
07 Aug - 03:33:34 10° W 03:42:59 80° S 03:52:11 10° E visible
07 Aug - 05:38:16 10° W 05:47:23 64° SSW 05:56:24 10° ESE daylight
07 Aug - 07:43:17 10° W 07:50:51 30° SW 07:58:24 10° SSE daylight
07 Aug - 23:03:21 10° S 23:10:19 23° SE 23:17:07 10° E visible
08 Aug - 01:04:18 10° SW 01:13:33 56° SSE 01:22:30 10° ENE visible
08 Aug - 03:08:22 10° W 03:17:50 80° S 03:27:02 10° E visible
08 Aug - 05:13:05 10° W 05:22:16 67° SSW 05:31:18 10° ESE daylight
08 Aug - 07:18:02 10° W 07:25:49 32° SW 07:33:34 10° SSE daylight
08 Aug - 22:38:39 10° S 22:45:17 21° SE 22:51:45 10° E visible
09 Aug - 00:39:13 10° SW 00:48:26 53° SSE 00:57:21 10° ENE visible
09 Aug - 02:43:11 10° WSW 02:52:40 79° S 03:01:53 10° E visible
09 Aug - 04:47:53 10° W 04:57:08 69° SSW 05:06:12 10° ESE visible
09 Aug - 06:52:48 10° W 07:00:46 34° SW 07:08:42 10° SSE daylight
09 Aug - 22:14:02 10° S 22:20:15 19° SE 22:26:21 10° E visible
10 Aug - 00:14:09 10° SW 00:23:19 51° SSE 00:32:11 10° ENE visible
10 Aug - 02:17:59 10° WSW 02:27:30 79° S 02:36:44 10° E visible
10 Aug - 04:22:42 10° W 04:32:00 71° SSW 04:41:06 10° ESE visible
10 Aug - 06:27:33 10° WNW 06:35:43 37° SW 06:43:49 10° SSE daylight
10 Aug - 21:49:28 10° SSE 21:55:14 18° SE 22:00:53 10° E visible
10 Aug - 23:49:06 10° SW 23:58:13 48° SSE 00:07:01 10° ENE visible
11 Aug - 01:52:48 10° WSW 02:02:21 78° S 02:11:35 10° E visible
11 Aug - 03:57:31 10° W 04:06:52 73° SSW 04:15:59 10° ESE visible
11 Aug - 06:02:19 10° WNW 06:10:40 39° SW 06:18:54 10° SSE daylight
11 Aug - 08:10:44 10° WSW 08:13:09 11° WSW 08:15:34 10° SW daylight
11 Aug - 21:25:01 10° SSE 21:30:13 16° SE 21:35:21 10° E visible
11 Aug - 23:24:04 10° SW 23:33:07 46° SE 23:41:51 10° ENE visible
